Station WIXA2 - Whittier AMHS, AK Image indicating link to RSS feed of recent meteorological observations for station WIXA2


Conditions at WIXA2 as of
(2:54 pm AKDT)
2254 GMT on 04/14/2024:
     

Click on the graph icon in the table below to see a time series plot of the last five days of that observation.

5-day plot - Wind Direction Wind Direction (WDIR):SSW ( 210 deg true )
5-day plot - Wind Speed Wind Speed (WSPD): 16 kts
5-day plot - Wind Gust Wind Gust (GST): 26 kts
5-day plot - Atmospheric Pressure Atmospheric Pressure (PRES):30.15 in
5-day plot - Air Temperature Air Temperature (ATMP): 38.7 °F
5-day plot - Wind Chill Wind Chill (CHILL): 29.1 °F
5-day plot - Wind Speed at 10 Meters Wind Speed at 10 meters (WSPD10M): 17 kts
5-day plot - Wind Speed at 20 Meters Wind Speed at 20 meters (WSPD20M): 19 kts
5-day plot -  Wind Speed, Wind Gust and Atmospheric Pressure Combined plot of Wind Speed, Gust, and Air Pressure
Previous observations
TIME
(AKDT)
5-day plot - Wind Direction
WDIR
 
5-day plot - Wind Speed
WSPD
kts
5-day plot - Wind Gust
GST
kts
5-day plot - Wave Height
WVHT
ft
5-day plot - Dominant Wave Period
DPD
sec
5-day plot - Average Wave Period
APD
sec
5-day plot - Mean Wave Direction
MWD
 
5-day plot - Atmospheric Pressure
PRES
in
5-day plot - Pressure Tendency
PTDY
in
5-day plot - Air Temperature
ATMP
°F
5-day plot - Water Temperature
WTMP
°F
5-day plot - Dew Point
DEWP
°F
5-day plot - Salinity
SAL
psu
5-day plot - Visibility
VIS
nmi
5-day plot - Tide (above MLLW)
TIDE
ft
2024-04-14 02:44 pmSSW 17 27----30.14- 38.5-----
2024-04-14 02:35 pmSSW 17 27----30.14- 38.5-----
2024-04-14 02:25 pmSSW 15 23----30.14- 38.5-----
2024-04-14 02:14 pm S 18 28----30.14- 38.1-----
2024-04-14 02:05 pmSSW 17 25----30.14- 38.1-----
2024-04-14 01:54 pm S 16 27----30.14- 38.1-----
2024-04-14 01:45 pmSSW 17 27----30.14- 37.8-----
2024-04-14 01:35 pmSSW 17 24----30.14- 37.6-----
2024-04-14 01:24 pmSSW 17 27----30.13- 37.4-----
2024-04-14 01:14 pmSSW 18 30----30.13- 37.2-----
2024-04-14 01:04 pmSSW 18 28----30.12- 37.4-----
2024-04-14 12:55 pmSSW 18 28----30.12- 37.2-----
2024-04-14 12:44 pmSSW 19 29----30.11- 36.9-----
2024-04-14 12:34 pmSSW 17 30----30.11- 36.7-----
2024-04-14 12:24 pmSSW 17 31----30.11- 36.7-----
2024-04-14 12:14 pmSSW 16 32----30.11- 36.7-----
2024-04-14 12:05 pmSSW 16 27----30.11- 36.7-----
2024-04-14 11:55 amSSW 13 25----30.10- 36.7-----
2024-04-14 11:44 amSSW 16 27----30.10- 36.5-----
2024-04-14 11:35 am S 16 29----30.09- 36.3-----
2024-04-14 11:25 am S 16 30----30.09- 36.3-----
2024-04-14 11:15 am S 19 31----30.09- 36.1-----
2024-04-14 11:05 am S 18 31----30.08- 36.1-----
2024-04-14 10:54 am S 17 28----30.08- 36.3-----
2024-04-14 10:45 am S 17 30----30.08- 36.3-----
2024-04-14 10:34 am S 16 31----30.07- 36.3-----
2024-04-14 10:24 am S 14 28----30.07- 36.1-----
2024-04-14 10:15 am S 16 28----30.07- 36.0-----
2024-04-14 10:04 am S 16 30----30.06- 36.1-----
2024-04-14 09:54 am S 15 29----30.06- 36.1-----
2024-04-14 09:45 amSSW 17 32----30.06- 36.1-----
2024-04-14 09:34 amSSW 14 26----30.06- 35.6-----
2024-04-14 09:25 amSSW 16 29----30.06- 35.8-----
2024-04-14 09:20 amSSW 16 29----30.06- 35.8-----
2024-04-14 09:15 am SW 15 29----30.05- 35.6-----
2024-04-14 08:55 amSSW 15 27----30.04- 35.8-----
2024-04-14 08:45 amSSW 15 28----30.04- 35.8-----
2024-04-14 08:35 amSSW 15 27----30.04- 35.6-----
2024-04-14 08:25 am S 15 26----30.04- 36.1-----
2024-04-14 08:15 am S 16 28----30.03- 36.1-----
2024-04-14 08:05 amSSW 16 25----30.03- 35.8-----
2024-04-14 07:54 amSSW 17 24----30.03- 35.6-----
2024-04-14 07:44 amSSW 16 26----30.02- 35.8-----
2024-04-14 07:34 amSSW 17 26----30.02- 36.0-----
2024-04-14 07:25 amSSW 16 28----30.02- 35.6-----
2024-04-14 07:14 amSSW 16 26----30.02- 35.8-----
2024-04-14 07:04 amSSW 17 26----30.01- 36.0-----
2024-04-14 06:54 am S 15 28----30.01- 36.1-----
2024-04-14 06:44 am S 16 28----30.01- 36.0-----
2024-04-14 06:34 am S 15 27----30.01- 36.1-----
2024-04-14 06:25 am S 16 25----30.01- 36.5-----
2024-04-14 06:14 am S 16 25----30.00- 36.5-----
2024-04-14 06:04 am S 16 26----30.00- 36.7-----
2024-04-14 05:55 amSSW 16 23----29.99- 36.5-----
2024-04-14 05:45 amSSW 15 25----29.99- 36.3-----
2024-04-14 05:35 amSSW 15 23----29.98- 36.3-----
2024-04-14 05:25 amSSW 14 23----29.98- 36.1-----
2024-04-14 05:15 amSSW 15 24----29.98- 36.1-----
2024-04-14 05:04 am SW 18 26----29.97- 36.3-----
2024-04-14 04:55 am SW 18 27----29.97- 36.3-----
2024-04-14 04:44 amSSW 16 25----29.97- 36.3-----
2024-04-14 04:34 amSSW 17 26----29.96- 36.3-----
2024-04-14 04:24 amSSW 17 26----29.96- 36.3-----
2024-04-14 04:14 amSSW 18 28----29.96- 36.5-----
2024-04-14 04:04 amSSW 17 26----29.95- 36.9-----
2024-04-14 03:54 amSSW 17 27----29.95- 36.7-----
2024-04-14 03:44 amSSW 17 26----29.95- 36.7-----
2024-04-14 03:34 amSSW 18 28----29.95- 36.9-----
2024-04-14 03:24 am SW 18 28----29.94- 36.9-----
2024-04-14 03:14 amSSW 18 27----29.94- 37.0-----
2024-04-14 03:04 am SW 19 29----29.93- 37.4-----
2024-04-14 02:54 am SW 17 26----29.93- 37.2-----
2024-04-14 02:44 amSSW 18 26----29.93- 37.4-----
2024-04-14 02:35 am SW 17 26----29.93- 37.2-----
2024-04-14 02:25 amSSW 17 28----29.92- 37.0-----
2024-04-14 02:15 am SW 19 28----29.92- 37.2-----
2024-04-14 02:05 am SW 19 29----29.92- 37.6-----
2024-04-14 01:55 am SW 17 26----29.91- 37.4-----
2024-04-14 01:44 am SW 19 28----29.91- 37.4-----
2024-04-14 01:35 am SW 18 28----29.91- 37.6-----
2024-04-14 01:24 am SW 19 27----29.90- 37.8-----
2024-04-14 01:14 am SW 18 25----29.90- 37.4-----
2024-04-14 01:05 am SW 18 28----29.90- 37.4-----
2024-04-14 12:54 am SW 17 28----29.89- 37.8-----
2024-04-14 12:35 am SW 17 27----29.89- 37.6-----
2024-04-14 12:25 am SW 18 27----29.88- 37.2-----
2024-04-14 12:16 am SW 18 30----29.88- 37.2-----
2024-04-14 12:05 am SW 17 26----29.88- 37.8-----
2024-04-13 11:55 pm SW 19 29----29.87- 37.9-----
2024-04-13 11:45 pm SW 18 25----29.87- 37.9-----
2024-04-13 11:35 pm SW 19 27----29.87- 37.9-----
2024-04-13 11:25 pm SW 19 27----29.86- 37.9-----
2024-04-13 11:14 pm SW 16 25----29.86- 37.8-----
2024-04-13 11:04 pm SW 18 25----29.85- 38.1-----
2024-04-13 10:54 pmSSW 16 27----29.85- 38.1-----
2024-04-13 10:44 pm SW 17 26----29.85- 38.1-----
2024-04-13 10:34 pmSSW 17 26----29.84- 38.3-----
2024-04-13 10:24 pm SW 17 28----29.84- 38.3-----
2024-04-13 10:14 pm SW 16 22----29.83- 38.5-----
2024-04-13 10:04 pm SW 16 23----29.83- 38.7-----
2024-04-13 09:54 pm SW 16 23----29.83- 38.7-----
2024-04-13 09:44 pm SW 16 24----29.83- 38.8-----
2024-04-13 09:34 pm SW 17 26----29.82- 38.8-----
2024-04-13 09:25 pm SW 15 25----29.82- 38.8-----
2024-04-13 09:15 pm SW 16 24----29.81- 38.8-----
2024-04-13 09:04 pmSSW 15 25----29.81- 38.8-----
2024-04-13 08:54 pm SW 15 23----29.81- 38.7-----
2024-04-13 08:45 pm SW 16 22----29.80- 38.8-----
2024-04-13 08:35 pmSSW 15 21----29.80- 38.8-----
2024-04-13 08:25 pmSSW 15 23----29.80- 38.8-----
2024-04-13 08:15 pm SW 15 22----29.80- 38.8-----
2024-04-13 08:05 pm SW 14 22----29.79- 38.8-----
2024-04-13 07:55 pm SW 15 21----29.79- 39.0-----
2024-04-13 07:44 pm SW 14 22----29.79- 39.4-----
2024-04-13 07:34 pm SW 14 23----29.79- 39.2-----
2024-04-13 07:24 pm SW 14 22----29.79- 39.2-----
2024-04-13 07:14 pm SW 13 19----29.79- 39.2-----
2024-04-13 07:04 pm SW 13 19----29.79- 39.4-----
2024-04-13 06:54 pmSSW 11 18----29.79- 39.2-----
2024-04-13 06:44 pm SW 13 20----29.78- 39.2-----
2024-04-13 06:34 pm SW 11 16----29.78- 39.2-----
2024-04-13 06:25 pm SW 12 21----29.78- 39.2-----
2024-04-13 06:14 pm SW 13 19----29.78- 39.4-----
2024-04-13 06:05 pm SW 12 18----29.78- 39.2-----
2024-04-13 05:55 pm SW 12 18----29.78- 39.6-----
2024-04-13 05:45 pm SW 9 17----29.78- 39.9-----
2024-04-13 05:35 pmSSW 8 16----29.78- 39.6-----
2024-04-13 05:25 pm SW 10 17----29.78- 39.2-----
2024-04-13 05:15 pm SW 12 17----29.78- 39.0-----
2024-04-13 05:04 pm SW 9 14----29.78- 39.6-----
2024-04-13 04:54 pm SW 9 15----29.78- 39.4-----
2024-04-13 04:44 pm SW 5 11----29.78- 39.7-----
2024-04-13 04:34 pmSSW 5 8----29.78- 39.0-----
2024-04-13 04:24 pmSSW 6 9----29.78- 38.8-----
2024-04-13 04:15 pmSSW 6 10----29.78- 39.2-----
2024-04-13 03:55 pm S 3 5----29.78- 39.6-----
2024-04-13 03:45 pm SW 3 5----29.78- 39.4-----
2024-04-13 03:35 pmSSW 4 7----29.78- 39.0-----
2024-04-13 03:25 pmSSW 4 6----29.78- 39.2-----
2024-04-13 03:14 pm SW 4 7----29.78- 40.3-----
2024-04-13 03:04 pm S 2 4----29.78- 39.9-----
2024-04-13 02:55 pm S 3 5----29.78- 39.4-----